Tillbaka till svenska Fidonet
English   Information   Debug  
FILM   0/18
FNEWS_PUBLISH   4569
FN_SYSOP   41808
FN_SYSOP_OLD1   71952
FTP_FIDO   0/2
FTSC_PUBLIC   0/13887
FUNNY   0/4886
GENEALOGY.EUR   0/71
GET_INFO   105
GOLDED   0/408
HAM   10651/16132
HOLYSMOKE   4984/6791
HOT_SITES   0/1
HTMLEDIT   0/71
HUB203   466
HUB_100   264
HUB_400   39
HUMOR   0/29
IC   0/2851
INTERNET   0/424
INTERUSER   0/3
IP_CONNECT   719
JAMNNTPD   0/233
JAMTLAND   0/47
KATTY_KORNER   0/41
LAN   0/16
LINUX-USER   0/19
LINUXHELP   0/1155
LINUX   0/22169
LINUX_BBS   0/957
mail   18.68
mail_fore_ok   249
MENSA   0/341
MODERATOR   0/102
MONTE   0/992
MOSCOW_OKLAHOMA   752/1245
MUFFIN   0/783
MUSIC   27/321
N203_STAT   938
N203_SYSCHAT   313
NET203   321
NET204   69
NET_DEV   0/10
NORD.ADMIN   0/101
NORD.CHAT   0/2572
NORD.FIDONET   189
NORD.HARDWARE   0/28
NORD.KULTUR   0/114
NORD.PROG   0/32
NORD.SOFTWARE   0/88
NORD.TEKNIK   0/58
NORD   0/453
OCCULT_CHAT   0/93
OS2BBS   0/787
OS2DOSBBS   0/580
OS2HW   0/42
OS2INET   0/37
OS2LAN   0/134
OS2PROG   0/36
OS2REXX   0/113
OS2USER-L   207
OS2   0/4804
OSDEBATE   0/18996
PASCAL   0/490
PERL   0/457
PHP   0/45
POINTS   0/405
POLITICS   0/29554
POL_INC   0/14731
PSION   103
R20_ADMIN   1129
R20_AMATORRADIO   0/2
R20_BEST_OF_FIDONET   14
R20_CHAT   0/893
R20_DEPP   0/3
R20_DEV   399
R20_ECHO2   1492
R20_ECHOPRES   0/35
R20_ESTAT   0/719
R20_FIDONETPROG...
...RAM.MYPOINT
  0/2
R20_FIDONETPROGRAM   0/22
R20_FIDONET   0/248
R20_FILEFIND   0/24
R20_FILEFOUND   0/22
R20_HIFI   0/3
R20_INFO2   3383
R20_INTERNET   0/12940
R20_INTRESSE   0/60
R20_INTR_KOM   53/99
R20_KANDIDAT.CHAT   42
R20_KANDIDAT   28
R20_KOM_DEV   112
R20_KONTROLL   4429/13360
R20_KORSET   0/18
R20_LOKALTRAFIK   0/24
R20_MODERATOR   0/1852
R20_NC   76
R20_NET200   245
R20_NETWORK.OTH...
...ERNETS
  0/13
R20_OPERATIVSYS...
...TEM.LINUX
  0/44
R20_PROGRAMVAROR   0/1
R20_REC2NEC   534
R20_SFOSM   0/341
R20_SF   0/108
R20_SPRAK.ENGLISH   0/1
R20_SQUISH   107
R20_TEST   2
R20_WORST_OF_FIDONET   20
RAR   0/9
RA_MULTI   106
RA_UTIL   0/162
REGCON.EUR   0/2066
REGCON   0/13
SCIENCE   0/1206
SF   0/239
SHAREWARE_SUPPORT   0/5146
SHAREWRE   0/14
SIMPSONS   0/169
STATS_OLD1   0/2539.065
STATS_OLD2   0/2530
STATS_OLD3   0/2395.095
STATS_OLD4   0/1692.25
SURVIVOR   0/495
SYSOPS_CORNER   0/3
SYSOP   0/84
TAGLINES   0/112
TEAMOS2   0/4530
TECH   0/2617
TEST.444   0/105
TRAPDOOR   0/19
TREK   0/755
TUB   0/290
UFO   0/40
UNIX   0/1316
USA_EURLINK   0/102
USR_MODEMS   0/1
VATICAN   0/2740
VIETNAM_VETS   0/14
VIRUS   0/378
VIRUS_INFO   0/201
VISUAL_BASIC   0/473
WHITEHOUSE   0/5187
WIN2000   0/101
WIN32   0/30
WIN95   0/4291
WIN95_OLD1   4636/70272
WINDOWS   0/1517
WWB_SYSOP   0/419
WWB_TECH   0/810
ZCC-PUBLIC   0/1
ZEC   4

 
4DOS   0/134
ABORTION   0/7
ALASKA_CHAT   0/506
ALLFIX_FILE   0/1313
ALLFIX_FILE_OLD1   0/7997
ALT_DOS   0/152
AMATEUR_RADIO   0/1039
AMIGASALE   0/14
AMIGA   0/331
AMIGA_INT   0/1
AMIGA_PROG   0/20
AMIGA_SYSOP   0/26
ANIME   0/15
ARGUS   0/924
ASCII_ART   0/340
ASIAN_LINK   0/651
ASTRONOMY   0/417
AUDIO   0/92
AUTOMOBILE_RACING   0/105
BABYLON5   0/17862
BAG   135
BATPOWER   34/361
BBBS.ENGLISH   0/382
BBSLAW   0/109
BBS_ADS   0/5290
BBS_INTERNET   0/507
BIBLE   0/3563
BINKD   0/1119
BINKLEY   0/215
BLUEWAVE   0/2173
CABLE_MODEMS   0/25
CBM   0/46
CDRECORD   0/66
CDROM   0/20
CLASSIC_COMPUTER   0/378
COMICS   0/15
CONSPRCY   0/899
COOKING   36244
COOKING_OLD1   0/24719
COOKING_OLD2   0/40862
COOKING_OLD3   0/37489
COOKING_OLD4   0/35496
COOKING_OLD5   9370
C_ECHO   0/189
C_PLUSPLUS   0/31
DIRTY_DOZEN   0/201
DOORGAMES   0/2115
DOS_INTERNET   0/196
duplikat   6002
ECHOLIST   0/18295
EC_SUPPORT   0/318
ELECTRONICS   0/359
ELEKTRONIK.GER   1534
ENET.LINGUISTIC   0/13
ENET.POLITICS   0/4
ENET.SOFT   3704/11701
ENET.SYSOP   34077
ENET.TALKS   0/32
ENGLISH_TUTOR   0/2000
EVOLUTION   0/1335
FDECHO   0/217
FDN_ANNOUNCE   0/7068
FIDONEWS   24344
FIDONEWS_OLD1   0/49742
FIDONEWS_OLD2   0/35949
FIDONEWS_OLD3   0/30874
FIDONEWS_OLD4   0/37224
FIDO_SYSOP   12854
FIDO_UTIL   0/180
FILEFIND   0/209
FILEGATE   0/212
Möte HAM, 16132 texter
 lista första sista föregående nästa
Text 1163, 766 rader
Skriven 2006-08-11 01:00:36 av Amsat List (1:323/120.0)
Ärende: [keps] orb06222.amsa
============================
[keps] orb06222.amsa


SB KEPS @ AMSAT  $ORB06222.O
Orbital Elements  06222.OSCAR

HR AMSAT ORBITAL ELEMENTS FOR OSCAR SATELLITES
FROM WA5QGD FORT WORTH,TX August 10, 2006
Send SUBSCRIBE KEPS/UNSUBSCRIBE KEPS to majordomo@amsat.org only
BID: ORB06222.O
TO ALL RADIO AMATEURS BT

Satellite: AO-07
Catalog number: 07530
Epoch time:      06222.69438922
Element set:     651
Inclination:      101.5637 deg
RA of node:       264.2554 deg
Eccentricity:    0.0012123
Arg of perigee:   139.5012 deg
Mean anomaly:     220.6959 deg
Mean motion:   12.53571466 rev/day
Decay rate:       -2.8e-07 rev/day^2
Epoch rev:           45221
Checksum:              279

Satellite: AO-10
Catalog number: 14129
Epoch time:      06221.71585416
Element set:     300
Inclination:      027.3622 deg
RA of node:       321.3494 deg
Eccentricity:    0.6031006
Arg of perigee:   308.0849 deg
Mean anomaly:     011.6293 deg
Mean motion:   02.05864792 rev/day
Decay rate:       -5.7e-07 rev/day^2
Epoch rev:           17415
Checksum:              272

Satellite: UO-11
Catalog number: 14781
Epoch time:      06221.61489294
Element set:    0144
Inclination:      098.2063 deg
RA of node:       232.9654 deg
Eccentricity:    0.0010188
Arg of perigee:   092.5627 deg
Mean anomaly:     267.6742 deg
Mean motion:   14.79450037 rev/day
Decay rate:       3.81e-06 rev/day^2
Epoch rev:           20366
Checksum:              307

Satellite: RS-10/11
Catalog number: 18129
Epoch time:      06221.68324773
Element set:    0075
Inclination:      082.9256 deg
RA of node:       288.5886 deg
Eccentricity:    0.0010986
Arg of perigee:   312.4317 deg
Mean anomaly:     047.5907 deg
Mean motion:   13.72776873 rev/day
Decay rate:        1.0e-07 rev/day^2
Epoch rev:           95849
Checksum:              339

Satellite: RS-15
Catalog number: 23439
Epoch time:      06221.94059948
Element set:    0001
Inclination:      064.8161 deg
RA of node:       150.2874 deg
Eccentricity:    0.0167040
Arg of perigee:   244.8130 deg
Mean anomaly:     113.5390 deg
Mean motion:   11.27552440 rev/day
Decay rate:       -3.9e-07 rev/day^2
Epoch rev:           47860
Checksum:              282

Satellite: FO-29
Catalog number: 24278
Epoch time:      06221.93491650
Element set:    0291
Inclination:      098.5119 deg
RA of node:       219.0320 deg
Eccentricity:    0.0350531
Arg of perigee:   170.1889 deg
Mean anomaly:     190.6333 deg
Mean motion:   13.52923220 rev/day
Decay rate:       -1.2e-07 rev/day^2
Epoch rev:           49281
Checksum:              288

Satellite: SO-33
Catalog number: 25509
Epoch time:      06221.85021917
Element set:    0718
Inclination:      031.4317 deg
RA of node:       185.9289 deg
Eccentricity:    0.0354913
Arg of perigee:   225.6447 deg
Mean anomaly:     131.4570 deg
Mean motion:   14.28110337 rev/day
Decay rate:      .00000000 rev/day^2
Epoch rev:           40671
Checksum:              275

Satellite: AO-40
Catalog number: 26609
Epoch time:      06219.89773748
Element set:     762
Inclination:      006.1457 deg
RA of node:       227.2805 deg
Eccentricity:    0.7958146
Arg of perigee:   188.6300 deg
Mean anomaly:     133.7607 deg
Mean motion:   01.25586691 rev/day
Decay rate:        3.4e-07 rev/day^2
Epoch rev:            2650
Checksum:              329

Satellite: VO-52
Catalog number: 28650
Epoch time:      06221.89650900
Element set:    0400
Inclination:      097.8685 deg
RA of node:       293.9706 deg
Eccentricity:    0.0027175
Arg of perigee:   184.5924 deg
Mean anomaly:     175.5063 deg
Mean motion:   14.81151661 rev/day
Decay rate:        5.0e-08 rev/day^2
Epoch rev:           06833
Checksum:              312

/EX
SB KEPS @ AMSAT  $ORB06222.D
Orbital Elements  06222.MICROS

HR AMSAT ORBITAL ELEMENTS FOR THE MICROSATS
FROM WA5QGD FORT WORTH,TX August 10, 2006
Send SUBSCRIBE KEPS/UNSUBSCRIBE KEPS to majordomo@amsat.org only
BID: ORB06222.D
TO ALL RADIO AMATEURS BT

Satellite: AO-16
Catalog number: 20439
Epoch time:      06222.52089360
Element set:     816
Inclination:      098.1866 deg
RA of node:       229.4089 deg
Eccentricity:    0.0011837
Arg of perigee:   036.1078 deg
Mean anomaly:     324.0906 deg
Mean motion:   14.31729322 rev/day
Decay rate:       -2.0e-08 rev/day^2
Epoch rev:           86409
Checksum:              302

Satellite: WO-18
Catalog number: 20441
Epoch time:      06221.59616345
Element set:    0017
Inclination:      098.1868 deg
RA of node:       233.1588 deg
Eccentricity:    0.0012488
Arg of perigee:   038.9575 deg
Mean anomaly:     321.2499 deg
Mean motion:   14.31799356 rev/day
Decay rate:     -.00000000 rev/day^2
Epoch rev:           86402
Checksum:              310

Satellite: LO-19
Catalog number: 20442
Epoch time:      06222.61169432
Element set:     753
Inclination:      098.1874 deg
RA of node:       238.9977 deg
Eccentricity:    0.0012646
Arg of perigee:   035.8755 deg
Mean anomaly:     324.3267 deg
Mean motion:   14.31972630 rev/day
Decay rate:        4.7e-07 rev/day^2
Epoch rev:           86424
Checksum:              324

Satellite: UO-22
Catalog number: 21575
Epoch time:      06222.40367698
Element set:     769
Inclination:      098.2986 deg
RA of node:       178.4159 deg
Eccentricity:    0.0006437
Arg of perigee:   271.8800 deg
Mean anomaly:     088.1656 deg
Mean motion:   14.39557939 rev/day
Decay rate:        1.7e-07 rev/day^2
Epoch rev:           79081
Checksum:              357

Satellite: KO-23
Catalog number: 22077
Epoch time:      06222.71536094
Element set:     867
Inclination:      066.0867 deg
RA of node:       347.8495 deg
Eccentricity:    0.0003936
Arg of perigee:   344.9460 deg
Mean anomaly:     015.1428 deg
Mean motion:   12.86437560 rev/day
Decay rate:       -3.7e-07 rev/day^2
Epoch rev:           65755
Checksum:              328

